Weather History for CYZU - January, 2013

Change the Weather History Date:

Wednesday, January 16, 2013

  Actual Average Record
Temperature  
Mean Temperature 32 °F -  
Max Temperature 37 °F 15 °F 43 °F (2014)
Min Temperature 28 °F 2 °F -23 °F (2012)
Degree Days  
Heating Degree Days 32    
Moisture  
Dew Point 31 °F    
Average Humidity 95    
Maximum Humidity 100    
Minimum Humidity 87    
Precipitation  
Precipitation 0.04 in - - ()
Sea Level Pressure  
Sea Level Pressure 30.19 in    
Wind  
Wind Speed 8 mph ()    
Max Wind Speed 14 mph    
Max Gust Speed 18 mph    
Visibility 7.0 miles    
Events Rain , Snow    
Averages and records for this station are not official NWS values.
T = Trace of Precipitation, MM = Missing Value Source: Averaged Metar Reports

Daily Weather History Graph

Daily Weather History Graph

Search for Another Location

Airport or City:

Trip Planner

Search our weather history database for the weather conditions in past years. The results will help you decide how hot, cold, wet, or windy it might be!

Date:

Astronomy

Jan. 16, 2013 Rise Set
Actual Time 8:52 AM MST 4:53 PM MST
Civil Twilight 8:11 AM MST 5:35 PM MST
Nautical Twilight 7:26 AM MST 6:19 PM MST
Astronomical Twilight 6:44 AM MST 7:02 PM MST
Moon 10:32 AM MST (1/16) 11:54 PM MST (1/16)
Length of Visible Light 9h 23m
Length of Day
8h 00m
Waxing Crescent, 29% of the Moon is Illuminated
Jan 16
Waxing Crescent
Jan 18
First Quarter
Jan 26
Full
Feb 3
Last Quarter
Feb 10
New

Hourly Weather History & Observations

Time (MST) Temp. Windchill Dew Point Humidity Pressure Visibility Wind Dir Wind Speed Gust Speed Precip Events Conditions
6:00 AM 35.6 °F 27.5 °F 32.0 °F 87% 30.04 in 15.0 mi WNW 11.5 mph 18.4 mph N/A   Mostly Cloudy
6:23 AM - - - N/A% - 15.0 mi WNW 10.4 mph - N/A Rain Light Rain
7:00 AM 33.8 °F 25.3 °F 32.0 °F 93% 30.06 in 15.0 mi West 11.5 mph - N/A Rain , Snow Light Rain
8:00 AM 33.8 °F 26.4 °F 32.0 °F 93% 30.07 in 15.0 mi WNW 9.2 mph - N/A Rain , Snow Light Rain
9:00 AM 33.8 °F 25.8 °F 32.0 °F 93% 30.10 in 12.0 mi WNW 10.4 mph - N/A Snow Light Snow
10:00 AM 33.8 °F 25.3 °F 32.0 °F 93% 30.12 in 3.0 mi WNW 11.5 mph - N/A Snow Light Snow Showers
11:00 AM 33 °F - 32 °F 94% 30.15 in 4 mi WNW 10.4 mph - - Snow Light Snow Showers
11:00 AM 33.8 °F 25.8 °F 32.0 °F 93% 30.15 in 4.0 mi WNW 10.4 mph - N/A Snow Light Snow Showers
12:00 PM 33.8 °F 25.3 °F 32.0 °F 93% 30.16 in 6.0 mi WNW 11.5 mph - N/A Snow Light Snow Showers
1:00 PM 33.8 °F 27.0 °F 30.2 °F 87% 30.17 in 8.0 mi WNW 8.1 mph - N/A Snow Light Snow Showers
1:39 PM - - - N/A% - 2.0 mi NW 13.8 mph - N/A   Unknown
1:48 PM - - - N/A% - 3.0 mi NW 11.5 mph - N/A   Unknown
2:00 PM 32.0 °F 22.5 °F 30.2 °F 93% 30.20 in 3.0 mi WNW 12.7 mph - N/A Snow Light Snow Showers
2:03 PM - - - N/A% - 1.5 mi WNW 11.5 mph - N/A   Unknown
2:41 PM - - - N/A% - 0.8 mi WNW 8.1 mph - N/A   Unknown
3:00 PM 32.0 °F 24.2 °F 30.2 °F 93% 30.21 in 0.5 mi West 9.2 mph - N/A Snow Snow Showers
3:20 PM - - - N/A% - 1.0 mi WNW 10.4 mph - N/A   Unknown
3:26 PM - - - N/A% - 1.5 mi WNW 9.2 mph - N/A   Unknown
3:42 PM - - - N/A% - 4.0 mi West 6.9 mph - N/A   Unknown
4:00 PM 32.0 °F 24.8 °F 30.2 °F 93% 30.23 in 8.0 mi WNW 8.1 mph - N/A Snow Light Snow Showers
5:00 PM 31 °F - 30 °F 95% 30.27 in 15 mi West 5.8 mph - - Snow Light Snow Showers
5:00 PM 30.2 °F 24.3 °F 30.2 °F 100% 30.27 in 15.0 mi West 5.8 mph - N/A Snow Light Snow Showers
5:34 PM - - - N/A% - 10.0 mi WNW 5.8 mph - N/A   Overcast
6:00 PM 30.2 °F 23.4 °F 30.2 °F 100% 30.28 in 3.0 mi NW 6.9 mph - N/A Snow Light Snow Showers
6:52 PM - - - N/A% - 10.0 mi Calm Calm - N/A   Mostly Cloudy
7:00 PM 28.4 °F - 28.4 °F 100% 30.27 in 10.0 mi Calm Calm - N/A   Mostly Cloudy
8:00 PM 28.4 °F - 28.4 °F 100% 30.29 in 10.0 mi Calm Calm - N/A Snow Light Snow Showers
9:00 PM 28.4 °F - 28.4 °F 100% 30.27 in 4.0 mi Calm Calm - N/A Snow Light Snow Showers
10:00 PM 28.4 °F - 28.4 °F 100% 30.25 in 4.0 mi Calm Calm - N/A Snow Light Snow Showers